Weather History for Marshfield, WI

Change the Weather History Date:

Tuesday, May 14, 2013

  Actual Average Record
Temperature  
Mean Temperature 62 °F -  
Max Temperature 82 °F 66 °F 89 °F (1991)
Min Temperature 43 °F 42 °F 27 °F (1925)
Degree Days  
Heating Degree Days 2    
Growing Degree Days 12 (Base 50)    
Moisture  
Dew Point 44 °F    
Average Humidity 48    
Maximum Humidity 76    
Minimum Humidity 28    
Precipitation  
Precipitation 0.00 in - - ()
Sea Level Pressure  
Sea Level Pressure 29.65 in    
Wind  
Wind Speed 7 mph (SE)    
Max Wind Speed 17 mph    
Max Gust Speed 24 mph    
Visibility 10 miles    
Events      
Averages and records for this station are not official NWS values.
T = Trace of Precipitation, MM = Missing Value Source: NWS Daily Summary

Daily Weather History Graph

Daily Weather History Graph

Search for Another Location

Airport:

Trip Planner

Search our weather history database for the weather conditions in past years. The results will help you decide how hot, cold, wet, or windy it might be!

Date:

Astronomy

May. 14, 2013 Rise Set
Actual Time 5:33 AM CDT 8:21 PM CDT
Civil Twilight 4:59 AM CDT 8:55 PM CDT
Nautical Twilight 4:17 AM CDT 9:38 PM CDT
Astronomical Twilight 3:27 AM CDT 10:28 PM CDT
Moon 9:13 AM CDT (5/14) No Moon Set
Length of Visible Light 15h 55m
Length of Day
14h 47m
Waxing Crescent, 19% of the Moon is Illuminated
May 14
Waxing Crescent
May 17
First Quarter
May 24
Full
May 31
Last Quarter
Jun 8
New

Hourly Weather History & Observations

Time (CDT) Temp. Windchill Dew Point Humidity Pressure Visibility Wind Dir Wind Speed Gust Speed Precip Events Conditions
12:54 AM 52.0 °F - 34.0 °F 50% 29.78 in 10.0 mi SSE 9.2 mph - N/A   Clear
1:54 AM 51.1 °F - 35.1 °F 54% 29.74 in 10.0 mi SSE 9.2 mph - N/A   Partly Cloudy
2:54 AM 50.0 °F - 36.0 °F 59% 29.72 in 10.0 mi SSE 8.1 mph - N/A   Clear
3:54 AM 48.0 °F - 36.0 °F 63% 29.71 in 10.0 mi Calm Calm - N/A   Clear
4:54 AM 44.1 °F 42.5 °F 36.0 °F 73% 29.71 in 10.0 mi ENE 3.5 mph - N/A   Clear
5:54 AM 43.0 °F 41.3 °F 36.0 °F 76% 29.71 in 10.0 mi NE 3.5 mph - N/A   Clear
6:54 AM 48.9 °F - 39.9 °F 71% 29.72 in 10.0 mi Calm Calm - N/A   Clear
7:54 AM 55.9 °F - 42.1 °F 60% 29.71 in 10.0 mi Calm Calm - N/A   Clear
8:54 AM 62.1 °F - 46.0 °F 56% 29.70 in 10.0 mi NNW 3.5 mph - N/A   Clear
9:54 AM 68.0 °F - 48.9 °F 50% 29.71 in 10.0 mi NNW 3.5 mph - N/A   Clear
10:54 AM 71.1 °F - 48.9 °F 45% 29.72 in 10.0 mi Calm Calm - N/A   Clear
11:54 AM 73.9 °F - 48.0 °F 40% 29.76 in 10.0 mi Calm Calm - N/A   Clear
12:54 PM 73.9 °F - 48.9 °F 41% 29.78 in 10.0 mi NNW 5.8 mph - N/A   Mostly Cloudy
1:54 PM 73.9 °F - 52.0 °F 46% 29.70 in 10.0 mi ESE 5.8 mph - 0.00 in   Partly Cloudy
2:54 PM 78.1 °F - 42.1 °F 28% 29.63 in 10.0 mi ESE 16.1 mph - N/A   Clear
3:54 PM 80.1 °F - 45.0 °F 29% 29.60 in 10.0 mi SE 15.0 mph - N/A   Clear
4:54 PM 82.0 °F - 46.0 °F 28% 29.58 in 10.0 mi SSE 16.1 mph - N/A   Clear
5:54 PM 82.9 °F - 46.9 °F 28% 29.53 in 10.0 mi SSE 17.3 mph 23.0 mph N/A   Clear
6:54 PM 82.0 °F - 48.9 °F 31% 29.49 in 10.0 mi SSE 13.8 mph - N/A   Clear
7:54 PM 77.0 °F - 51.1 °F 40% 29.49 in 10.0 mi South 8.1 mph - N/A   Clear
8:54 PM 72.0 °F - 51.1 °F 48% 29.49 in 10.0 mi ESE 6.9 mph - N/A   Clear
9:54 PM 68.0 °F - 52.0 °F 56% 29.49 in 10.0 mi Calm Calm - N/A   Clear
10:54 PM 73.9 °F - 48.9 °F 41% 29.50 in 10.0 mi WNW 13.8 mph 20.7 mph N/A   Clear
11:54 PM 71.1 °F - 37.9 °F 30% 29.54 in 10.0 mi NW 17.3 mph 24.2 mph N/A   Clear